7L2IWN-13 Weather Reports


time (UTC)temp
C
wind
direction
speed
KPH
gust
KPH
rain 1hr
cm
rain 24hr
cm
rain mn
cm
humidity
%
barometer
mb
20260901074803 23 234 3.2 3.2 0.00 0.05 0.05 99 1015.8
20260901073602 23 255 0.0 1.6 0.00 0.05 0.05 99 1015.7
20260901072402 23 125 0.0 0.0 0.00 0.05 0.05 99 1015.8
20260901071203 23 228 1.6 3.2 0.00 0.05 0.05 99 1015.9
20260901070004 23 159 1.6 3.2 0.00 0.05 0.05 99 1015.6
20260901064802 22 246 0.0 0.0 0.00 0.05 0.05 99 1015.9
20260901063602 22 230 1.6 3.2 0.00 0.05 0.05 99 1015.8
20260901062404 22 237 1.6 3.2 0.00 0.05 0.05 99 1015.8
20260901061203 23 204 3.2 8.0 0.00 0.05 0.05 99 1015.8
20260901060002 23 150 3.2 3.2 0.00 0.05 0.05 99 1016.1
20260901054803 23 199 3.2 4.8 0.00 0.05 0.05 99 1016.0
20260901053602 23 190 1.6 4.8 0.00 0.05 0.05 99 1015.9
20260901052404 23 187 4.8 9.7 0.00 0.05 0.05 98 1016.0
20260901051203 23 206 3.2 4.8 0.00 0.05 0.05 96 1015.9
20260901050002 24 91 0.0 0.0 0.00 0.05 0.05 93 1016.1
20260901044803 24 90 1.6 1.6 0.00 0.05 0.05 93 1015.9
20260901043603 25 91 0.0 1.6 0.00 0.05 0.05 91 1016.0
20260901042403 25 90 1.6 3.2 0.00 0.05 0.05 91 1015.8
20260901041203 24 92 0.0 1.6 0.00 0.05 0.05 92 1015.6
20260901040003 25 120 1.6 3.2 0.00 0.05 0.05 90 1016.0
20260901034802 25 121 1.6 3.2 0.00 0.05 0.05 90 1016.0
20260901033603 25 132 0.0 1.6 0.00 0.05 0.05 90 1015.9
20260901032403 24 208 0.0 0.0 0.00 0.05 0.05 91 1016.2
20260901031204 23 244 0.0 1.6 0.00 0.05 0.05 92 1016.3
20260901030002 23 160 1.6 3.2 0.00 0.05 0.05 94 1016.3
20260901024803 23 201 3.2 4.8 0.00 0.05 0.05 94 1016.5
20260901023602 23 215 3.2 4.8 0.00 0.05 0.05 95 1016.2
20260901022402 23 200 1.6 4.8 0.00 0.05 0.05 94 1016.5
20260901021202 23 138 1.6 3.2 0.00 0.05 0.05 94 1016.6
20260901020003 23 147 1.6 3.2 0.00 0.05 0.05 95 1016.4
20260901014803 23 110 1.6 3.2 0.00 0.05 0.05 94 1016.7
20260901013602 24 320 0.0 1.6 0.00 0.05 0.05 91 1016.8
20260901012402 24 322 0.0 0.0 0.00 0.05 0.05 92 1017.1
20260901011202 23 292 0.0 0.0 0.00 0.05 0.05 93 1016.9
20260901010003 23 258 0.0 3.2 0.00 0.05 0.05 94 1016.9
20260901004802 23 13 0.0 3.2 0.00 0.05 0.05 95 1017.0
20260901003602 23 276 1.6 3.2 0.00 0.05 0.05 94 1017.0
20260901002403 23 342 0.0 1.6 0.00 0.05 0.05 94 1017.0
20260901001203 23 340 0.0 0.0 0.00 0.05 0.05 95 1017.0
20260901000003 22 336 0.0 0.0 0.00 0.05 0.05 98 1017.0
20260831234805 22 336 0.0 0.0 0.00 0.05 0.05 99 1016.9
20260831233603 21 341 1.6 3.2 0.00 0.05 0.05 99 1016.8
20260831232404 21 351 1.6 4.8 0.00 0.05 0.05 99 1016.9
20260831231204 21 311 1.6 4.8 0.00 0.05 0.05 99 1017.1
20260831230004 21 310 0.0 1.6 0.00 0.05 0.05 99 1017.0
20260831224804 21 310 0.0 0.0 0.00 0.05 0.05 99 1016.9
20260831223603 21 310 0.0 1.6 0.00 0.05 0.05 99 1016.7
20260831222403 20 310 0.0 0.0 0.00 0.05 0.05 99 1017.1
20260831221203 20 310 1.6 1.6 0.00 0.05 0.05 99 1017.1
20260831220003 20 310 0.0 1.6 0.03 0.05 0.05 99 1017.2
20260831214802 20 310 0.0 0.0 0.03 0.05 0.05 99 1016.8
20260831213604 20 310 0.0 0.0 0.03 0.05 0.05 99 1017.0
20260831212403 20 310 0.0 0.0 0.03 0.05 0.05 99 1017.1
20260831211203 20 310 0.0 0.0 0.05 0.05 0.05 99 1016.9
20260831210004 20 310 0.0 0.0 0.03 0.03 0.03 99 1016.9
20260831204803 20 310 0.0 0.0 0.03 0.03 0.03 99 1016.6
20260831203603 20 310 1.6 4.8 0.03 0.03 0.03 99 1016.5
20260831202402 20 297 3.2 3.2 0.03 0.03 0.03 99 1016.5
20260831201202 20 288 1.6 3.2 0.00 0.00 0.00 99 1016.2
20260831200002 20 270 0.0 0.0 0.00 0.00 0.00 99 1016.5
20260831194802 20 270 0.0 0.0 0.00 0.00 0.00 99 1016.5
20260831193603 20 270 0.0 0.0 0.00 0.00 0.00 99 1016.8
20260831192402 20 258 0.0 0.0 0.00 0.00 0.00 99 1016.4
20260831191202 21 258 1.6 1.6 0.00 0.00 0.00 99 1016.5
20260831190004 21 259 0.0 0.0 0.00 0.00 0.00 99 1016.5
20260831184802 21 259 0.0 0.0 0.00 0.00 0.00 99 1016.5
20260831183601 21 259 0.0 0.0 0.00 0.00 0.00 99 1016.8
20260831182403 21 259 0.0 0.0 0.00 0.00 0.00 99 1016.4
20260831181202 21 260 0.0 1.6 0.00 0.00 0.00 99 1016.8
20260831180002 21 257 0.0 1.6 0.00 0.00 0.00 99 1016.7
20260831174803 21 272 0.0 0.0 0.00 0.00 0.00 99 1016.6
20260831173603 21 252 0.0 1.6 0.00 0.00 0.00 99 1016.7
20260831172402 21 253 1.6 3.2 0.00 0.00 0.00 99 1016.5
20260831171202 21 279 1.6 3.2 0.00 0.00 0.00 99 1016.6
20260831170002 21 279 1.6 1.6 0.00 0.00 0.00 99 1016.2
20260831164803 21 278 0.0 0.0 0.00 0.00 0.00 99 1016.3
20260831163603 21 279 0.0 0.0 0.00 0.00 0.00 99 1016.6
20260831162402 21 279 0.0 0.0 0.00 0.00 0.00 99 1016.6
20260831161202 21 274 3.2 3.2 0.00 0.00 0.00 99 1016.6
20260831160003 21 252 3.2 4.8 0.00 0.00 0.00 99 1016.5
20260831154803 21 281 0.0 1.6 0.00 0.00 0.00 99 1016.4
20260831153604 21 282 0.0 1.6 0.00 0.00 0.00 99 1016.4
20260831152402 21 282 3.2 3.2 0.00 0.00 0.00 99 1016.5
20260831151204 21 278 3.2 4.8 0.00 0.00 0.00 99 1016.5
20260831150004 21 228 3.2 8.0 0.00 0.00 0.00 99 1016.7
20260831144803 21 262 3.2 3.2 0.00 0.00 0.00 99 1016.6
20260831143603 21 231 3.2 4.8 0.00 0.00 0.00 99 1016.6
20260831142403 21 233 1.6 3.2 0.00 0.00 0.00 99 1016.4
20260831141202 21 232 3.2 3.2 0.00 0.00 0.00 99 1016.4
20260831140002 21 232 3.2 4.8 0.00 0.00 0.00 99 1016.4
20260831134802 21 231 3.2 4.8 0.00 0.00 0.00 99 1016.0
20260831133601 21 242 3.2 4.8 0.00 0.00 0.00 99 1016.2
20260831132403 22 231 3.2 4.8 0.00 0.00 0.00 99 1016.1
20260831131202 22 221 3.2 3.2 0.00 0.00 0.00 99 1016.0
20260831130002 22 229 1.6 4.8 0.00 0.00 0.00 99 1016.6
20260831124801 22 233 3.2 4.8 0.00 0.00 0.00 99 1016.3
20260831123603 22 227 4.8 8.0 0.00 0.00 0.00 99 1016.1
20260831122402 22 235 1.6 3.2 0.00 0.00 0.00 99 1016.1
20260831121202 22 220 4.8 8.0 0.00 0.00 0.00 99 1016.1
20260831120001 22 238 3.2 4.8 0.00 0.00 0.00 99 1016.2
20260831114803 22 245 4.8 8.0 0.00 0.00 0.00 99 1016.1
20260831113601 22 290 1.6 3.2 0.00 0.00 0.00 98 1016.1
20260831112401 22 312 3.2 3.2 0.00 0.00 0.00 98 1016.0
20260831111202 22 312 0.0 0.0 0.00 0.00 0.00 98 1016.1
20260831110004 22 293 0.0 1.6 0.00 0.00 0.00 99 1016.1
20260831104804 22 293 3.2 4.8 0.00 0.00 0.00 99 1015.8
20260831103602 23 258 0.0 0.0 0.00 0.00 0.00 99 1015.5
20260831102402 23 248 3.2 3.2 0.00 0.00 0.00 99 1015.5
20260831101203 23 299 0.0 0.0 0.00 0.00 0.00 99 1015.3
20260831100003 23 299 3.2 3.2 0.00 0.00 0.00 99 1015.0
20260831094802 23 275 1.6 3.2 0.00 0.00 0.00 99 1014.8
20260831093602 23 249 1.6 1.6 0.00 0.00 0.00 99 1014.7
20260831092402 23 268 3.2 4.8 0.00 0.00 0.00 99 1014.7
20260831091202 23 247 3.2 4.8 0.00 0.00 0.00 99 1014.7
20260831090001 23 216 3.2 3.2 0.00 0.00 0.00 99 1014.3
20260831084802 23 233 1.6 3.2 0.00 0.00 0.00 98 1014.2
20260831083603 23 259 4.8 4.8 0.00 0.00 0.00 97 1014.1
20260831082402 23 223 3.2 8.0 0.00 0.00 0.00 97 1013.9
20260831081202 23 213 4.8 8.0 0.00 0.00 0.00 97 1014.2
20260831080003 23 206 4.8 8.0 0.00 0.00 0.00 98 1013.7